This is the latest recevied weather packets stored in our database for station/object KA9CBS. If no packets are shown the sender has not sent any weather packets the latest 10 day(s).
| Time | Temp. | Humidity | Pressure | Rain* | Wind** | Luminosity | Snow |
|---|---|---|---|---|---|---|---|
| 1778191096 | 17.78° C | 43% | 1016.2 hPa | 0 mm | - | 92 W/m² | - |
| 1778190793 | 17.78° C | 45% | 1016.2 hPa | 0 mm | - | 86 W/m² | - |
| 1778190490 | 17.78° C | 44% | 1016.2 hPa | 0 mm | - | 80 W/m² | - |
| 1778190188 | 17.78° C | 39% | 1016.2 hPa | 0 mm | - | 79 W/m² | - |
| 1778189883 | 17.78° C | 44% | 1016.4 hPa | 0 mm | - | 92 W/m² | - |
| 1778189580 | 17.78° C | 38% | 1016.5 hPa | 0 mm | - | 106 W/m² | - |
| 1778189277 | 17.78° C | 43% | 1016.5 hPa | 0 mm | - | 105 W/m² | - |
| 1778188973 | 17.78° C | 45% | 1016.5 hPa | 0 mm | - | 117 W/m² | - |
| 1778188669 | 17.78° C | 40% | 1016.7 hPa | 0 mm | - | 98 W/m² | - |
| 1778188366 | 17.78° C | 42% | 1016.6 hPa | 0 mm | - | 129 W/m² | - |
| 1778188063 | 17.78° C | 41% | 1016.5 hPa | 0 mm | - | 152 W/m² | - |
| 1778187760 | 17.22° C | 41% | 1016.4 hPa | 0 mm | - | 106 W/m² | - |
| 1778187456 | 17.22° C | 47% | 1016.8 hPa | 0 mm | - | 134 W/m² | - |
| 1778187153 | 17.78° C | 42% | 1016.5 hPa | 0 mm | - | 110 W/m² | - |
| 1778186849 | 17.78° C | 41% | 1016.8 hPa | 0 mm | - | 187 W/m² | - |
| 1778186547 | 17.78° C | 41% | 1016.6 hPa | 0 mm | - | 188 W/m² | - |
| 1778186245 | 17.78° C | 42% | 1016.7 hPa | 0 mm | - | 296 W/m² | - |
| 1778185942 | 18.33° C | 41% | 1016.7 hPa | 0 mm | - | 141 W/m² | - |
| 1778185638 | 18.89° C | 42% | 1016.6 hPa | 0 mm | - | 642 W/m² | - |
| 1778185334 | 18.33° C | 38% | 1016.9 hPa | 0 mm | - | 675 W/m² | - |
| 1778185029 | 17.22° C | 42% | 1016.9 hPa | 0 mm | - | 678 W/m² | - |
| 1778184726 | 17.78° C | 37% | 1017.1 hPa | 0 mm | - | 688 W/m² | - |
| 1778184423 | 17.78° C | 41% | 1017.1 hPa | 0 mm | - | 696 W/m² | - |
| 1778184119 | 17.78° C | 43% | 1017.2 hPa | 0 mm | - | 696 W/m² | - |
| 1778183815 | 17.78° C | 38% | 1017.1 hPa | 0 mm | - | 711 W/m² | - |
* Rain latest hour (hover to see other rain measurements)
** Current wind speed in m/s (hover to see current wind gust speed)